Location: Newark
(25.0000°N, 73.5000°E)
Time: 23:10:41
(UTC+00:00)

FENGYUN 1C DEB - Visible Passes

Search period start: 24 June 2021 00:00
Search period end: 04 July 2021 00:00
Orbit: 824 x 882 km, 98.9° (Epoch: 24 June)

Date Brightness Start Highest point End Pass type
(mag) Time Alt. Az. Time Alt. Az. Time Alt. Az.
24 Jun ? 17:00:18 11° NE 17:00:18 11° NE 17:00:51 10° NE visible
24 Jun ? 18:42:22 22° NNW 18:42:22 22° NNW 18:44:18 10° NNW visible
25 Jun ? 18:31:10 24° NNW 18:31:10 24° NNW 18:33:19 10° NNW visible
26 Jun ? 18:19:59 26° N 18:19:59 26° N 18:22:16 10° N visible
27 Jun ? 18:08:48 26° N 18:08:48 26° N 18:11:09 10° N visible
28 Jun ? 17:57:36 25° NNE 17:57:36 25° NNE 17:59:57 10° N visible
29 Jun ? 17:46:25 22° NNE 17:46:25 22° NNE 17:48:41 10° N visible
30 Jun ? 17:35:14 20° NNE 17:35:14 20° NNE 17:37:19 10° NNE visible
30 Jun ? 19:17:18 13° NW 19:17:18 13° NW 19:17:53 10° NW visible
01 Jul ? 17:24:03 17° NE 17:24:03 17° NE 17:25:50 10° NNE visible
01 Jul ? 19:06:07 15° NW 19:06:07 15° NW 19:07:11 10° NW visible
02 Jul ? 17:12:52 14° NE 17:12:52 14° NE 17:14:09 10° NNE visible
02 Jul ? 18:54:56 18° NW 18:54:56 18° NW 18:56:22 10° NNW visible
03 Jul ? 17:01:41 11° NE 17:01:41 11° NE 17:02:06 10° NE visible
03 Jul ? 18:43:45 21° NNW 18:43:45 21° NNW 18:45:28 10° NNW visible
